Wind_Speed
18 18 18 19 19 19 19 19 19 19 19 18 18 18 17 17 16 15 14 13 13 13 14 16 18 21 24 27 30 32 34 37 39 41 44 45 46 47 47 47 47 48 48
18 18 18 18 18 18 18 18 19 19 19 19 18 18 18 18 18 17 16 15 15 13 13 15 17 19 22 24 27 30 33 35 37 40 42 45 46 48 48 48 47 48 48
18 18 18 18 19 18 18 18 19 19 19 19 19 19 19 19 19 19 19 17 16 15 15 15 16 18 20 22 24 28 31 34 36 38 41 43 45 46 47 48 48 48 48
18 18 18 18 19 19 19 19 19 19 19 19 19 19 19 20 20 20 20 18 18 17 16 16 17 17 18 20 22 24 27 30 33 36 39 42 44 46 46 46 48 48 48
18 18 19 19 19 19 19 19 19 19 19 19 19 19 19 20 20 21 20 19 18 18 18 18 18 17 18 18 19 21 23 26 29 32 36 39 42 44 45 45 46 47 47
19 19 19 19 19 19 19 19 19 19 19 19 19 19 19 20 20 20 20 19 19 19 20 19 18 18 18 17 17 17 19 22 24 28 31 34 37 40 42 44 45 46 46
19 20 20 20 20 20 20 19 19 19 19 19 19 19 19 19 20 20 20 19 19 20 20 20 19 18 18 17 16 16 16 18 20 23 26 29 32 35 38 40 42 44 45
20 21 21 21 21 21 21 21 20 20 20 20 20 20 20 19 20 20 20 20 19 19 20 20 19 18 17 16 16 15 14 15 16 19 22 25 28 31 34 36 39 41 42
21 22 23 23 23 23 22 22 22 21 21 21 21 21 20 20 20 20 20 20 20 20 20 20 19 18 18 17 16 15 14 14 15 16 18 21 24 27 30 32 35 37 38
24 25 25 25 25 25 24 24 23 23 22 22 22 21 21 21 21 20 20 20 20 20 20 19 19 19 18 17 16 15 15 14 14 16 17 19 22 24 26 29 32 34 36
26 27 28 28 27 27 26 26 25 24 23 23 23 22 22 22 22 21 21 21 21 21 21 20 19 19 18 18 17 16 15 15 14 15 16 17 19 22 24 26 29 32 34
28 29 30 29 29 28 28 27 26 25 25 24 23 23 23 22 22 22 22 22 22 22 21 21 20 20 19 19 18 17 16 16 15 14 15 15 17 19 22 24 27 30 33
30 31 31 31 30 29 29 28 28 27 26 25 24 24 24 23 23 23 23 22 22 22 22 22 21 21 20 20 19 18 17 16 16 15 15 15 16 17 19 22 24 27 29
32 32 32 32 31 30 29 28 28 27 26 25 25 24 24 24 23 23 23 23 23 23 23 23 22 22 21 21 20 19 18 17 17 16 16 16 16 17 18 19 22 24 27
33 33 33 32 32 31 30 28 27 26 26 25 25 24 24 23 24 23 23 23 24 24 24 24 24 23 23 22 21 21 20 19 18 18 17 17 18 18 18 18 19 22 25
34 35 34 34 33 31 29 29 28 27 26 26 25 24 24 24 24 24 24 24 24 25 25 25 25 25 24 24 23 23 22 21 21 20 19 19 19 19 19 19 19 20 22
36 36 36 34 33 31 30 29 29 29 28 27 27 26 26 26 26 26 26 26 26 26 27 26 26 26 26 26 25 25 24 24 23 22 22 21 20 20 19 19 20 21 21
37 37 36 35 34 32 31 30 29 29 30 30 30 29 29 28 28 29 29 29 29 29 29 29 29 29 29 28 28 28 27 27 26 25 24 23 23 22 22 21 21 21 21
38 38 37 36 35 34 33 32 31 30 30 30 31 32 31 31 31 31 31 32 32 32 32 32 31 31 32 32 31 31 30 30 29 29 28 27 26 25 24 24 23 23 23
40 40 39 38 37 36 35 34 33 33 32 32 32 32 33 33 34 34 34 34 35 35 35 35 35 35 35 35 35 35 35 34 33 33 32 31 30 29 28 27 26 26 25
42 41 40 39 38 37 36 36 35 35 35 34 34 34 34 35 35 36 36 37 37 38 38 38 38 38 39 38 38 38 38 38 38 37 36 36 35 34 33 31 30 29 28
43 43 42 41 40 39 38 37 37 37 36 36 36 36 36 37 37 38 38 39 40 40 41 42 42 42 42 43 43 43 42 42 42 42 41 40 39 38 37 36 35 33 32
45 44 43 42 41 40 39 39 38 38 38 38 38 39 39 39 40 41 41 42 43 44 44 45 45 46 46 47 47 47 47 47 46 46 46 45 44 43 42 41 39 38 36
46 45 43 42 41 40 39 39 39 39 39 40 40 41 41 42 43 44 45 46 47 48 48 49 49 50 51 51 52 52 52 52 52 51 51 50 50 49 47 46 44 42 40
46 44 43 41 40 39 39 39 39 40 41 42 42 43 44 45 46 47 48 49 50 51 52 53 54 55 56 57 57 57 57 57 56 56 56 55 55 54 53 51 50 47 45
45 43 41 40 39 39 39 40 41 42 43 44 45 46 47 48 50 51 52 53 55 56 57 59 60 61 61 62 62 62 61 61 60 60 61 60 59 59 58 57 55 53 50
Wind_Direction
356 357 358 1 2 3 3 4 4 5 5 5 5 4 3 1 357 352 344 332 319 304 290 281 275 270 264 259 255 252 247 244 241 239 239 237 236 235 235 235 235 235 234
352 353 355 357 358 359 360 360 0 1 2 2 2 2 1 360 358 354 349 341 331 320 307 297 289 281 273 267 261 256 252 247 243 240 240 239 238 237 236 236 235 235 234
350 351 352 353 354 355 356 356 356 357 357 358 358 359 358 357 356 354 351 346 339 330 320 312 305 295 284 275 267 261 256 252 247 243 241 240 240 239 238 237 236 235 234
348 350 351 352 352 352 353 353 353 354 355 355 356 356 355 355 354 353 351 350 347 341 332 324 317 308 298 287 277 268 262 257 251 247 244 242 241 241 239 238 238 236 235
347 348 349 349 349 349 350 350 350 351 352 352 352 352 352 353 353 354 352 351 349 346 341 334 328 320 312 301 291 278 268 262 256 251 247 245 243 242 241 240 239 238 237
344 345 346 346 345 345 345 345 345 346 347 348 349 349 350 350 350 351 351 351 349 347 345 341 334 328 322 314 304 291 278 267 260 254 250 248 246 244 243 242 240 239 238
340 340 341 341 341 340 340 340 340 340 341 342 344 345 345 345 346 347 348 347 347 346 345 344 340 335 330 324 315 305 292 278 267 259 254 251 249 247 245 244 242 240 239
336 337 337 337 335 334 334 334 334 334 334 335 336 337 338 340 341 342 343 343 343 343 343 343 341 338 334 328 322 314 303 289 277 266 258 253 250 248 246 244 242 241 240
332 333 332 331 330 329 329 329 329 328 328 328 329 329 331 332 334 336 337 339 339 339 339 340 339 338 336 332 326 319 310 298 286 275 265 257 252 250 248 245 243 243 240
329 329 328 326 325 324 324 323 322 322 322 323 323 324 325 327 328 330 331 333 334 335 336 336 336 336 335 332 328 323 316 307 294 282 272 264 257 254 251 246 243 241 241
326 327 325 323 322 321 320 319 317 317 317 318 318 319 321 322 323 325 326 327 329 330 331 331 331 332 333 332 329 325 319 312 303 293 282 272 263 258 254 250 246 244 242
323 324 324 322 321 320 318 316 314 313 313 314 315 315 316 317 318 319 321 322 323 324 326 327 327 327 327 327 327 325 321 317 310 303 294 283 273 265 259 254 250 247 244
321 322 322 321 320 319 316 314 312 310 310 310 312 312 312 313 313 314 316 317 319 320 321 322 322 323 324 324 323 321 320 317 312 306 300 291 283 274 268 262 255 251 248
318 319 319 319 318 317 315 313 310 308 308 308 309 310 310 309 309 310 310 311 312 314 316 317 319 319 319 319 319 318 316 314 312 307 300 294 289 284 278 271 261 254 250
316 317 317 316 315 314 313 311 309 307 306 306 307 308 308 307 307 307 306 306 307 308 310 312 313 314 315 315 314 314 313 310 308 305 302 296 290 287 283 277 268 260 254
313 315 315 313 312 311 310 308 307 306 305 305 305 306 305 305 304 304 304 303 303 304 305 306 307 308 309 310 309 309 309 308 305 302 300 296 293 288 284 278 272 265 260
311 312 313 312 310 309 307 306 305 305 304 304 304 304 304 304 303 303 303 303 303 303 303 303 303 303 303 304 304 303 303 302 301 299 297 293 291 288 284 280 275 269 264
309 310 311 310 308 306 305 304 303 302 303 303 303 303 303 302 302 302 303 302 302 302 301 301 300 300 299 299 298 298 298 297 296 294 293 290 287 285 283 279 274 270 266
306 308 309 308 306 304 303 302 301 300 300 300 301 301 301 301 301 301 301 301 301 301 301 299 298 297 297 296 295 294 292 291 291 290 288 287 285 282 280 278 274 271 268
304 305 306 305 303 302 301 300 299 299 298 298 298 299 299 299 300 300 300 300 300 299 299 298 297 296 295 294 293 292 290 288 286 285 284 283 281 280 278 276 273 270 268
302 302 303 302 300 299 299 298 298 297 297 297 297 297 297 297 297 298 298 298 298 297 297 296 295 294 293 292 290 289 288 287 285 283 280 279 278 276 275 273 271 268 266
300 300 300 299 298 297 297 296 296 296 296 296 297 297 297 297 296 296 296 296 296 295 294 294 293 292 291 290 289 288 286 283 282 280 278 276 274 272 271 270 268 266 263
298 298 297 297 296 296 295 294 294 294 295 295 296 297 297 297 297 297 297 296 296 295 294 293 292 291 290 289 287 285 284 282 279 277 275 273 271 268 267 265 264 263 261
296 296 295 295 294 294 293 293 293 294 295 296 296 296 297 297 298 298 297 297 297 296 295 294 293 292 290 289 287 285 282 280 278 275 272 270 268 265 263 261 260 259 258
293 293 293 293 292 292 292 292 293 294 295 296 296 296 297 298 298 298 298 298 298 297 296 295 294 293 291 289 287 285 282 279 276 273 270 267 265 262 260 258 256 254 253
291 291 291 290 290 290 291 292 293 294 295 296 297 297 298 299 299 299 299 299 299 298 297 296 295 293 291 289 287 284 282 278 275 272 268 265 262 259 257 254 252 250 248
Height
5820 5816 5812 5809 5805 5802 5798 5795 5791 5788 5784 5781 5778 5774 5771 5768 5765 5762 5760 5758 5756 5755 5754 5753 5753 5752 5752 5753 5754 5755 5757 5760 5763 5766 5768 5771 5775 5779 5783 5787 5791 5795 5799
5819 5816 5812 5808 5805 5802 5798 5795 5791 5788 5784 5781 5777 5774 5770 5767 5764 5760 5757 5754 5752 5750 5749 5747 5746 5745 5744 5744 5744 5745 5746 5749 5752 5755 5757 5760 5763 5767 5771 5776 5780 5784 5788
5818 5815 5811 5808 5804 5801 5798 5794 5791 5787 5784 5780 5777 5773 5769 5766 5762 5759 5755 5751 5748 5746 5744 5742 5740 5738 5736 5736 5735 5735 5736 5738 5740 5744 5746 5748 5752 5755 5759 5764 5768 5773 5777
5817 5814 5810 5807 5803 5800 5797 5793 5790 5786 5783 5779 5776 5772 5768 5765 5761 5756 5752 5748 5745 5742 5740 5737 5735 5732 5730 5728 5727 5726 5727 5727 5729 5732 5735 5737 5740 5743 5748 5752 5756 5760 5765
5815 5812 5809 5805 5802 5799 5795 5792 5789 5785 5782 5778 5775 5771 5767 5763 5759 5755 5750 5746 5743 5740 5736 5733 5730 5727 5724 5722 5720 5718 5718 5718 5719 5721 5724 5726 5729 5732 5736 5740 5744 5748 5753
5814 5810 5807 5804 5801 5797 5794 5790 5787 5784 5780 5777 5773 5769 5766 5762 5758 5753 5749 5745 5741 5737 5734 5730 5727 5723 5720 5717 5715 5712 5711 5711 5711 5712 5714 5716 5718 5721 5724 5728 5732 5737 5743
5812 5809 5805 5802 5799 5795 5792 5788 5785 5781 5778 5775 5771 5767 5764 5760 5756 5752 5748 5744 5740 5736 5732 5728 5724 5720 5717 5713 5711 5709 5707 5705 5705 5705 5706 5707 5709 5712 5715 5719 5722 5725 5731
5809 5806 5803 5799 5796 5793 5789 5786 5782 5779 5775 5772 5768 5765 5761 5758 5754 5750 5746 5742 5738 5734 5730 5726 5722 5718 5714 5711 5708 5705 5703 5701 5700 5699 5700 5700 5701 5703 5706 5709 5711 5716 5720
5807 5803 5800 5796 5793 5789 5786 5782 5779 5775 5772 5769 5765 5762 5759 5755 5752 5748 5744 5740 5736 5732 5728 5724 5720 5716 5712 5709 5706 5703 5700 5698 5696 5695 5695 5694 5695 5696 5698 5700 5703 5706 5711
5803 5799 5796 5792 5789 5785 5781 5778 5775 5771 5768 5765 5762 5758 5755 5752 5748 5745 5741 5737 5734 5730 5726 5722 5718 5714 5711 5707 5704 5701 5698 5695 5693 5691 5690 5690 5690 5690 5691 5692 5694 5697 5701
5798 5795 5791 5787 5783 5780 5776 5773 5770 5766 5763 5760 5757 5754 5751 5748 5745 5741 5738 5734 5731 5727 5723 5720 5716 5712 5709 5705 5702 5698 5695 5692 5690 5688 5686 5685 5685 5684 5685 5685 5687 5689 5692
5793 5789 5785 5781 5777 5774 5770 5767 5764 5761 5758 5755 5752 5749 5746 5743 5740 5737 5734 5731 5727 5724 5720 5717 5713 5709 5706 5703 5699 5696 5693 5690 5687 5685 5683 5681 5680 5679 5679 5679 5680 5681 5683
5787 5783 5779 5775 5771 5768 5764 5761 5757 5754 5752 5749 5746 5744 5741 5738 5735 5732 5729 5726 5723 5719 5716 5713 5710 5706 5703 5699 5696 5693 5690 5687 5684 5682 5679 5677 5676 5674 5673 5673 5673 5674 5675
5782 5778 5774 5770 5766 5762 5758 5754 5751 5748 5745 5743 5740 5738 5735 5732 5730 5727 5724 5721 5718 5715 5711 5708 5705 5702 5699 5696 5692 5689 5686 5684 5681 5678 5676 5674 5672 5670 5668 5667 5667 5667 5668
5776 5772 5768 5764 5760 5756 5752 5748 5745 5742 5739 5737 5734 5732 5729 5727 5724 5721 5718 5715 5712 5709 5706 5703 5700 5697 5694 5691 5688 5685 5682 5680 5677 5675 5672 5670 5668 5666 5664 5662 5661 5661 5662
5769 5765 5761 5757 5753 5749 5745 5742 5738 5736 5733 5730 5728 5726 5723 5720 5717 5715 5712 5709 5706 5704 5701 5698 5695 5692 5689 5686 5683 5680 5678 5675 5672 5670 5668 5666 5663 5661 5659 5658 5656 5656 5656
5761 5757 5753 5749 5745 5742 5739 5735 5731 5728 5725 5723 5721 5718 5716 5713 5710 5708 5705 5702 5700 5697 5694 5691 5688 5685 5683 5680 5677 5675 5672 5670 5667 5665 5662 5660 5658 5656 5654 5653 5651 5650 5650
5753 5749 5745 5741 5737 5734 5731 5728 5725 5722 5718 5715 5712 5710 5707 5705 5702 5700 5697 5694 5691 5689 5686 5683 5680 5678 5675 5672 5670 5668 5665 5663 5661 5659 5656 5654 5652 5651 5649 5647 5646 5644 5644
5744 5740 5737 5733 5729 5726 5723 5720 5717 5714 5711 5708 5705 5701 5699 5696 5693 5691 5688 5685 5682 5679 5677 5674 5671 5669 5666 5664 5661 5659 5656 5654 5652 5651 5649 5647 5645 5644 5642 5641 5640 5639 5638
5734 5731 5727 5724 5720 5717 5714 5711 5708 5705 5703 5700 5697 5694 5690 5687 5684 5681 5678 5676 5673 5670 5667 5664 5661 5659 5656 5654 5651 5649 5647 5644 5642 5641 5639 5638 5637 5636 5634 5633 5632 5632 5631
5724 5721 5717 5714 5710 5707 5704 5701 5698 5695 5693 5690 5687 5684 5681 5678 5675 5672 5668 5665 5662 5659 5656 5653 5650 5647 5644 5642 5639 5637 5635 5633 5631 5630 5628 5627 5626 5626 5625 5624 5624 5623 5623
5713 5710 5706 5703 5700 5697 5694 5691 5688 5685 5682 5679 5676 5673 5670 5668 5664 5661 5658 5654 5651 5648 5644 5641 5638 5635 5631 5628 5626 5624 5621 5619 5618 5616 5615 5614 5614 5613 5613 5613 5613 5613 5613
5701 5698 5695 5691 5688 5685 5682 5680 5677 5674 5671 5668 5665 5661 5658 5655 5652 5648 5645 5641 5638 5634 5631 5627 5624 5620 5617 5614 5611 5608 5606 5604 5602 5601 5600 5599 5599 5599 5599 5599 5600 5601 5602
5688 5685 5682 5679 5676 5673 5671 5668 5665 5662 5659 5656 5653 5650 5646 5642 5639 5635 5631 5627 5623 5619 5615 5611 5607 5603 5600 5596 5593 5590 5587 5585 5584 5582 5582 5581 5581 5582 5583 5583 5585 5586 5588
5675 5672 5670 5667 5664 5662 5659 5656 5653 5650 5647 5644 5640 5637 5633 5629 5625 5620 5616 5611 5607 5602 5597 5593 5588 5584 5580 5576 5572 5569 5566 5564 5562 5561 5560 5560 5561 5562 5563 5565 5567 5570 5572
5662 5659 5657 5654 5652 5650 5647 5644 5641 5638 5634 5631 5627 5623 5618 5614 5609 5604 5599 5594 5589 5584 5579 5573 5568 5562 5558 5553 5549 5545 5542 5539 5538 5536 5536 5536 5537 5539 5541 5544 5547 5551 5554